Location: Mount Wilson Observatory
(34.2257°N, 118.0571°W)
Time: 19:04:57
(UTC-07:00)

ATLAS 3B CENTAUR R/B - Visible Passes

Search period start: 16 October 2017 00:00
Search period end: 26 October 2017 00:00
Orbit: 224 x 5834 km, 28.1° (Epoch: 16 October)

Date Brightness Start Highest point End Pass type
(mag) Time Alt. Az. Time Alt. Az. Time Alt. Az.
16 Oct 5.1 20:34:18 10° SW 20:39:41 21° S 20:46:27 14° SSE visible
17 Oct 4.3 19:11:43 10° SW 19:15:27 22° S 19:22:20 10° SE visible
17 Oct 5.8 21:54:01 10° SW 21:58:52 13° SSW 21:59:33 13° S visible
18 Oct 5.3 20:29:02 10° SW 20:33:08 15° S 20:39:24 10° SSE visible
19 Oct 4.5 19:05:24 10° SW 19:08:16 16° S 19:12:44 10° SSE visible
21 Oct 4.7 18:59:03 10° SSW 18:59:41 10° S 19:00:23 10° S visible
